Find Starlink 5908

NORAD ID: 55951 Int'l Des: 2023-037 Owner: SPXS Country: US Constellation: starlink operational
LEOCIRCULAR

实时位置

正在加载3D地球...

关于 Starlink 5908

正在加载描述...

即将过境

Passes for default location (London). Set your location on the main map for personalized predictions.

高度历史

Loading altitude history...

两行轨道根数

1 55951U 23037AP 26105.60079815 .00000079 00000-0 14449-4 0 9992
2 55951 70.0007 191.2063 0003204 269.7747 90.3045 14.98332800169515
Epoch: Apr 15, 2026 • Age: 13 hours

当前状态

高度 583.4 km
速度 7.57 km/s
星下点 58.76°N, 72.66°E
发射日期 Mar 17, 2023
运行时间 3 years
类型 internet

技术详情

分类 Payload
质量 305.00 kg
干质量 290.00 kg
总质量 305.00 kg
长度 0.20 m
直径 2.80 m
跨度 9.00 m
形状 Box + pan
制造商 SPXS
平台类型 Starlink
阶段状态 In Orbit
所有者/国家 SPXS/US

Most Searched